This is the latest recevied weather packets stored in our database for station/object K6CED. If no packets are shown the sender has not sent any weather packets the latest 10 day(s).
| Time | Temp. | Humidity | Pressure | Rain* | Wind** | Luminosity | Snow |
|---|---|---|---|---|---|---|---|
| 1778099780 | 24.44° C | 42% | 1018.6 hPa | 0 mm | - | 882 W/m² | - |
| 1778099476 | 23.33° C | 43% | 1018.6 hPa | 0 mm | - | 885 W/m² | - |
| 1778099174 | 23.33° C | 44% | 1018.7 hPa | 0 mm | - | 889 W/m² | - |
| 1778098870 | 22.78° C | 42% | 1018.7 hPa | 0 mm | - | 893 W/m² | - |
| 1778098567 | 23.89° C | 44% | 1018.8 hPa | 0 mm | - | 898 W/m² | - |
| 1778098264 | 22.78° C | 44% | 1018.9 hPa | 0 mm | - | 903 W/m² | - |
| 1778097960 | 22.78° C | 43% | 1018.8 hPa | 0 mm | - | 906 W/m² | - |
| 1778097657 | 22.22° C | 44% | 1018.9 hPa | 0 mm | - | 908 W/m² | - |
| 1778097354 | 22.78° C | 43% | 1019 hPa | 0 mm | - | 909 W/m² | - |
| 1778097050 | 22.78° C | 44% | 1019.1 hPa | 0 mm | - | 911 W/m² | - |
| 1778096748 | 22.78° C | 43% | 1019.3 hPa | 0 mm | - | 910 W/m² | - |
| 1778096444 | 22.22° C | 44% | 1019.3 hPa | 0 mm | - | 911 W/m² | - |
| 1778096142 | 21.67° C | 45% | 1019.4 hPa | 0 mm | - | 912 W/m² | - |
| 1778095839 | 22.22° C | 44% | 1019.4 hPa | 0 mm | - | 911 W/m² | - |
| 1778095535 | 21.11° C | 45% | 1019.7 hPa | 0 mm | - | 911 W/m² | - |
| 1778095231 | 21.67° C | 45% | 1019.7 hPa | 0 mm | - | 912 W/m² | - |
| 1778094928 | 21.67° C | 45% | 1019.9 hPa | 0 mm | - | 912 W/m² | - |
| 1778094624 | 21.67° C | 46% | 1019.7 hPa | 0 mm | - | 910 W/m² | - |
| 1778094321 | 20.56° C | 48% | 1020 hPa | 0 mm | - | 909 W/m² | - |
| 1778094018 | 21.11° C | 47% | 1019.9 hPa | 0 mm | - | 907 W/m² | - |
| 1778093716 | 21.11° C | 47% | 1020 hPa | 0 mm | - | 905 W/m² | - |
| 1778093412 | 20.56° C | 48% | 1020 hPa | 0 mm | - | 901 W/m² | - |
| 1778093110 | 20.56° C | 49% | 1020.2 hPa | 0 mm | - | 899 W/m² | - |
| 1778092807 | 20° C | 50% | 1020.2 hPa | 0 mm | - | 894 W/m² | - |
| 1778092502 | 19.44° C | 51% | 1020.1 hPa | 0 mm | - | 890 W/m² | - |
* Rain latest hour (hover to see other rain measurements)
** Current wind speed in m/s (hover to see current wind gust speed)